KJ7NO-2 Weather Reports


time (UTC)temp
C
wind
direction
speed
KPH
gust
KPH
rain 1hr
cm
rain 24hr
cm
rain mn
cm
humidity
%
barometer
mb
20260502180634 21 27 8.0 14.5 0.00 0.00 0.00 20 1020.6
20260502180122 21 27 6.4 14.5 0.00 0.00 0.00 21 1020.7
20260502170132 20 27 4.8 8.0 0.00 0.00 0.00 27 1020.8
20260502164133 18 27 4.8 6.4 0.00 0.00 0.00 28 1021.0
20260502163638 18 27 1.6 8.0 0.00 0.00 0.00 28 1021.0
20260502163141 17 27 4.8 9.7 0.00 0.00 0.00 28 1021.0
20260502162625 17 27 6.4 9.7 0.00 0.00 0.00 28 1020.9
20260502162129 17 27 3.2 8.0 0.00 0.00 0.00 28 1020.9
20260502161634 17 27 3.2 8.0 0.00 0.00 0.00 29 1020.9
20260502161138 16 27 3.2 6.4 0.00 0.00 0.00 31 1020.9
20260502160622 16 27 4.8 6.4 0.00 0.00 0.00 30 1020.9
20260502160131 16 27 4.8 6.4 0.00 0.00 0.00 32 1020.9
20260502152123 14 27 3.2 4.8 0.00 0.00 0.00 36 1020.9
20260502151628 13 27 3.2 4.8 0.00 0.00 0.00 36 1021.0
20260502151152 13 27 1.6 4.8 0.00 0.00 0.00 36 1021.0
20260502150636 13 27 3.2 4.8 0.00 0.00 0.00 36 1021.0
20260502150200 13 27 3.2 8.0 0.00 0.00 0.00 37 1021.0
20260502130625 7 27 1.6 6.4 0.00 0.00 0.00 57 1020.7
20260502130124 7 27 1.6 3.2 0.00 0.00 0.00 56 1020.7
20260502123629 8 27 4.8 8.0 0.00 0.00 0.00 58 1020.5
20260502123135 8 27 0.0 6.4 0.00 0.00 0.00 58 1020.4
20260502122639 8 27 0.0 3.2 0.00 0.00 0.00 57 1020.4
20260502122123 8 27 0.0 3.2 0.00 0.00 0.00 57 1020.4
20260502121627 8 27 1.6 4.8 0.00 0.00 0.00 57 1020.3
20260502121132 8 27 3.2 4.8 0.00 0.00 0.00 57 1020.3
20260502120636 8 27 0.0 4.8 0.00 0.00 0.00 57 1020.3
20260502120124 8 27 1.6 4.8 0.00 0.00 0.00 58 1020.4
20260502115648 8 27 4.8 4.8 0.00 0.00 0.00 60 1020.3
20260502115152 8 27 3.2 4.8 0.00 0.00 0.00 59 1020.3
20260502114635 8 27 1.6 4.8 0.00 0.00 0.00 59 1020.3
20260502114138 8 27 1.6 4.8 0.00 0.00 0.00 59 1020.3
20260502113623 8 27 0.0 4.8 0.00 0.00 0.00 58 1020.3
20260502113147 8 27 3.2 4.8 0.00 0.00 0.00 58 1020.3
20260502112650 8 27 1.6 3.2 0.00 0.00 0.00 58 1020.4
20260502112154 8 27 3.2 3.2 0.00 0.00 0.00 59 1020.4
20260502111636 8 27 1.6 4.8 0.00 0.00 0.00 59 1020.6
20260502111121 8 27 3.2 4.8 0.00 0.00 0.00 59 1020.6
20260502110625 8 27 3.2 4.8 0.00 0.00 0.00 58 1020.6
20260502110130 8 27 3.2 6.4 0.00 0.00 0.00 58 1020.7
20260502105634 8 27 1.6 6.4 0.00 0.00 0.00 57 1020.7
20260502105159 9 27 1.6 6.4 0.00 0.00 0.00 55 1020.7
20260502104625 9 27 3.2 6.4 0.00 0.00 0.00 53 1020.7
20260502104130 9 27 3.2 6.4 0.00 0.00 0.00 53 1020.7
20260502103634 9 27 3.2 6.4 0.00 0.00 0.00 52 1020.6
20260502103139 9 27 4.8 8.0 0.00 0.00 0.00 51 1020.6
20260502102642 9 27 6.4 8.0 0.00 0.00 0.00 51 1020.5
20260502102147 8 27 6.4 6.4 0.00 0.00 0.00 51 1020.6
20260502101134 9 27 3.2 8.0 0.00 0.00 0.00 49 1020.4
20260502100637 9 27 4.8 8.0 0.00 0.00 0.00 49 1020.3
20260502100122 9 27 4.8 6.4 0.00 0.00 0.00 47 1020.3
20260502091127 9 27 3.2 6.4 0.00 0.00 0.00 46 1020.1
20260502090632 9 27 3.2 6.4 0.00 0.00 0.00 48 1020.1
20260502090136 9 27 4.8 6.4 0.00 0.00 0.00 47 1020.2
20260502071134 11 27 0.0 8.0 0.00 0.00 0.00 52 1020.1
20260502070658 11 27 4.8 8.0 0.00 0.00 0.00 52 1020.2
20260502070122 11 27 3.2 8.0 0.00 0.00 0.00 51 1020.1
20260502065625 11 27 1.6 6.4 0.00 0.00 0.00 51 1020.1
20260502065131 11 27 3.2 6.4 0.00 0.00 0.00 52 1020.1
20260502064634 11 27 3.2 4.8 0.00 0.00 0.00 53 1020.1
20260502064139 11 27 1.6 8.0 0.00 0.00 0.00 52 1020.1
20260502063627 11 27 6.4 8.0 0.00 0.03 0.00 51 1020.1
20260502063132 11 27 4.8 8.0 0.00 0.03 0.00 50 1020.3
20260502062635 11 27 3.2 4.8 0.00 0.03 0.00 48 1020.1
20260502062139 11 27 1.6 4.8 0.00 0.03 0.00 48 1020.1
20260502061623 11 27 1.6 4.8 0.00 0.03 0.00 48 1020.1
20260502061127 11 27 1.6 4.8 0.00 0.03 0.00 47 1020.1
20260502060631 12 27 0.0 8.0 0.00 0.03 0.00 46 1020.1
20260502060136 12 27 6.4 8.0 0.00 0.03 0.00 46 1020.2
20260502055639 12 27 3.2 8.0 0.00 0.03 0.00 44 1020.1
20260502055144 12 27 1.6 4.8 0.00 0.03 0.00 43 1020.0
20260502054646 12 27 3.2 4.8 0.00 0.03 0.00 43 1020.0
20260502054131 12 27 3.2 4.8 0.00 0.03 0.00 43 1020.0
20260502053654 12 27 3.2 4.8 0.00 0.03 0.03 45 1019.9
20260502053122 12 27 0.0 3.2 0.00 0.03 0.03 43 1019.9
20260502052626 12 27 0.0 4.8 0.00 0.03 0.03 44 1019.9
20260502052130 13 27 1.6 4.8 0.00 0.03 0.03 44 1020.0
20260502051634 13 27 0.0 4.8 0.00 0.03 0.03 45 1019.9
20260502051138 13 27 3.2 4.8 0.00 0.03 0.03 45 1019.9
20260502050622 13 27 1.6 3.2 0.00 0.03 0.03 44 1019.9
20260502050127 13 27 1.6 3.2 0.00 0.03 0.03 45 1019.9
20260502045631 12 27 1.6 3.2 0.00 0.03 0.03 45 1020.0
20260502045136 12 27 1.6 3.2 0.00 0.03 0.03 44 1020.0
20260502044620 12 27 1.6 4.8 0.00 0.03 0.03 44 1020.0
20260502044124 12 27 3.2 6.4 0.00 0.03 0.03 43 1020.0
20260502043632 13 27 3.2 6.4 0.00 0.03 0.03 43 1020.0
20260502043137 13 27 1.6 6.4 0.00 0.03 0.03 42 1020.1
20260502042641 13 27 0.0 6.4 0.00 0.03 0.03 43 1020.1
20260502042145 13 27 4.8 6.4 0.00 0.03 0.03 43 1020.1
20260502041628 13 27 3.2 4.8 0.00 0.03 0.03 42 1020.0
20260502041153 14 27 1.6 3.2 0.00 0.03 0.03 42 1019.9
20260502040636 14 27 1.6 3.2 0.00 0.03 0.03 41 1019.9
20260502040121 14 27 1.6 3.2 0.00 0.03 0.03 42 1019.8
20260502035624 14 27 1.6 3.2 0.00 0.03 0.03 42 1019.8
20260502035129 14 27 1.6 4.8 0.00 0.03 0.03 42 1019.8
20260502034633 14 27 1.6 4.8 0.00 0.03 0.03 42 1019.8
20260502034138 14 27 1.6 4.8 0.00 0.03 0.03 42 1019.7
20260502033622 14 27 1.6 4.8 0.00 0.03 0.03 41 1019.7
20260502033147 14 27 1.6 6.4 0.00 0.03 0.03 40 1019.6
20260502032649 15 27 4.8 6.4 0.00 0.03 0.03 39 1019.5
20260502032137 15 27 4.8 6.4 0.00 0.03 0.03 38 1019.5
20260502031621 15 27 3.2 6.4 0.00 0.03 0.03 37 1019.4
20260502031146 15 27 3.2 6.4 0.00 0.03 0.03 36 1019.3
20260502030629 16 27 1.6 4.8 0.00 0.03 0.03 36 1019.2
20260502030134 16 27 1.6 6.4 0.00 0.03 0.03 36 1019.2
20260502025658 16 27 4.8 8.0 0.00 0.03 0.03 35 1019.0
20260502025121 16 27 4.8 8.0 0.00 0.03 0.03 33 1019.0
20260502024625 16 27 1.6 9.7 0.00 0.03 0.03 32 1019.0
20260502024130 16 27 4.8 9.7 0.00 0.03 0.03 32 1019.0
20260502023633 16 27 6.4 8.0 0.00 0.03 0.03 32 1019.0
20260502023138 16 27 6.4 8.0 0.00 0.03 0.03 33 1018.9
20260502022622 16 27 4.8 12.9 0.00 0.03 0.03 34 1019.0
20260502022130 16 27 6.4 12.9 0.00 0.03 0.03 34 1018.9
20260502021635 16 27 6.4 12.9 0.00 0.03 0.03 34 1018.9
20260502021139 16 27 0.0 4.8 0.00 0.03 0.03 34 1018.9
20260502020623 16 27 1.6 4.8 0.00 0.03 0.03 35 1018.8
20260502020128 16 27 0.0 6.4 0.00 0.03 0.03 36 1018.8
20260502015632 16 27 1.6 9.7 0.00 0.03 0.03 36 1018.7
20260502015157 16 27 4.8 14.5 0.00 0.03 0.03 36 1018.6
20260502014700 16 27 8.0 16.1 0.00 0.03 0.03 36 1018.5
20260502014123 16 27 9.7 20.9 0.00 0.03 0.03 37 1018.5
20260502013628 17 27 11.3 20.9 0.00 0.03 0.03 37 1018.4
20260502013132 17 27 11.3 25.7 0.00 0.03 0.03 36 1018.4
20260502012636 17 27 16.1 25.7 0.00 0.03 0.03 36 1018.3
20260502012141 17 27 17.7 24.1 0.00 0.03 0.03 35 1018.2
20260502011628 17 27 17.7 25.7 0.00 0.03 0.03 35 1018.2
20260502011133 17 27 19.3 25.7 0.00 0.03 0.03 36 1018.1
20260502010636 17 27 16.1 25.7 0.00 0.03 0.03 34 1018.2
20260502010121 18 27 14.5 25.7 0.00 0.03 0.03 34 1018.2
20260502005645 18 27 16.1 24.1 0.00 0.03 0.03 30 1018.2
20260502005129 18 27 14.5 22.5 0.00 0.03 0.03 30 1018.2
20260502004633 18 27 14.5 27.4 0.00 0.03 0.03 30 1018.1
20260502004138 18 27 14.5 25.7 0.00 0.03 0.03 28 1018.1
20260502003621 18 27 17.7 25.7 0.00 0.03 0.03 27 1018.1
20260502003147 18 27 17.7 32.2 0.00 0.03 0.03 28 1018.2
20260502002650 18 27 19.3 32.2 0.00 0.03 0.03 28 1018.1
20260502002153 18 27 19.3 27.4 0.00 0.03 0.03 28 1018.3
20260502001636 18 27 14.5 25.7 0.00 0.03 0.03 29 1018.2
20260502001121 18 27 14.5 29.0 0.00 0.03 0.03 28 1018.3
20260502000644 18 27 20.9 29.0 0.00 0.03 0.03 28 1018.3
20260502000149 18 27 17.7 29.0 0.00 0.03 0.03 27 1018.3
20260501235635 18 27 20.9 29.0 0.00 0.03 0.03 28 1018.4
20260501235139 18 27 17.7 29.0 0.00 0.03 0.03 27 1018.3
20260501234623 18 27 19.3 27.4 0.00 0.03 0.03 27 1018.3
20260501234127 18 27 17.7 30.6 0.00 0.03 0.03 27 1018.4
20260501233632 18 27 20.9 30.6 0.00 0.03 0.03 26 1018.4
20260501233136 18 27 17.7 29.0 0.00 0.03 0.03 26 1018.4
20260501232701 18 27 17.7 29.0 0.00 0.03 0.03 26 1018.4
20260501232123 18 27 17.7 29.0 0.00 0.03 0.03 26 1018.4
20260501231628 18 27 16.1 27.4 0.00 0.03 0.03 27 1018.5
20260501231132 18 27 19.3 33.8 0.00 0.03 0.03 26 1018.6
20260501230657 18 27 22.5 33.8 0.00 0.03 0.03 25 1018.6
20260501230120 18 27 16.1 29.0 0.00 0.03 0.03 27 1018.6
20260501225629 18 27 17.7 32.2 0.00 0.03 0.03 26 1018.6
20260501225132 18 27 17.7 32.2 0.00 0.03 0.03 26 1018.6
20260501224638 18 27 17.7 30.6 0.00 0.03 0.03 26 1018.7
20260501224121 18 27 16.1 30.6 0.00 0.03 0.03 26 1018.7
20260501223626 18 27 20.9 29.0 0.00 0.03 0.03 27 1018.7
20260501223130 18 27 20.9 29.0 0.00 0.03 0.03 27 1018.8
20260501222635 18 27 19.3 29.0 0.00 0.03 0.03 26 1018.9
20260501222139 18 27 17.7 29.0 0.00 0.03 0.03 26 1018.9
20260501221624 18 27 16.1 29.0 0.00 0.03 0.03 28 1019.0
20260501221127 18 27 19.3 29.0 0.00 0.03 0.03 27 1019.0
20260501220632 18 27 17.7 33.8 0.00 0.03 0.03 29 1019.2
20260501220140 18 27 16.1 33.8 0.00 0.03 0.03 28 1019.2
20260501215624 18 27 17.7 27.4 0.00 0.03 0.03 26 1019.2
20260501215128 18 27 17.7 29.0 0.00 0.03 0.03 27 1019.2
20260501214633 18 27 20.9 29.0 0.00 0.03 0.03 26 1019.2
20260501214137 18 27 16.1 30.6 0.00 0.03 0.03 26 1019.3
20260501213621 18 27 19.3 30.6 0.00 0.03 0.03 27 1019.3
20260501213125 18 27 19.3 32.2 0.00 0.03 0.03 28 1019.3
20260501212630 18 27 24.1 32.2 0.00 0.03 0.03 28 1019.3
20260501212134 18 27 19.3 32.2 0.00 0.03 0.03 28 1019.2
20260501211659 18 27 20.9 32.2 0.00 0.03 0.03 27 1019.3
20260501211122 18 27 20.9 32.2 0.00 0.03 0.03 28 1019.3
20260501210631 18 27 16.1 33.8 0.00 0.03 0.03 28 1019.4
20260501210134 18 27 17.7 33.8 0.00 0.03 0.03 28 1019.4
20260501205640 18 27 16.1 27.4 0.00 0.03 0.03 28 1019.4
20260501205123 18 27 19.3 29.0 0.00 0.03 0.03 27 1019.4
20260501204628 18 27 20.9 29.0 0.00 0.03 0.03 26 1019.5
20260501204132 18 27 17.7 29.0 0.00 0.03 0.03 28 1019.4
20260501203637 18 27 19.3 29.0 0.00 0.03 0.03 26 1019.5
20260501203120 18 27 16.1 24.1 0.00 0.03 0.03 25 1019.3
20260501202645 18 27 11.3 27.4 0.00 0.03 0.03 25 1019.4
20260501202128 18 27 16.1 27.4 0.00 0.03 0.03 25 1019.5
20260501201653 18 27 12.9 25.7 0.00 0.03 0.03 26 1019.5
20260501201136 18 27 16.1 30.6 0.00 0.03 0.03 26 1019.5
20260501200625 18 27 14.5 25.7 0.00 0.03 0.03 25 1019.5
20260501200129 18 27 17.7 29.0 0.00 0.03 0.03 25 1019.4
20260501195634 17 27 19.3 29.0 0.00 0.03 0.03 26 1019.5
20260501195138 17 27 16.1 27.4 0.00 0.03 0.03 25 1019.5
20260501194622 17 27 16.1 29.0 0.00 0.03 0.03 26 1019.5
20260501194146 17 27 19.3 29.0 0.00 0.03 0.03 25 1019.6
20260501193630 17 27 9.7 24.1 0.00 0.03 0.03 23 1019.6
20260501193134 17 27 14.5 24.1 0.00 0.03 0.03 22 1019.7
20260501192659 17 27 9.7 24.1 0.00 0.03 0.03 22 1019.8
20260501192142 17 27 11.3 20.9 0.00 0.03 0.03 23 1019.9
20260501191625 18 27 14.5 20.9 0.00 0.03 0.03 21 1019.9
20260501191150 17 27 9.7 20.9 0.00 0.03 0.03 24 1020.0
20260501190633 18 27 14.5 20.9 0.00 0.03 0.03 24 1020.1
20260501190137 18 27 11.3 19.3 0.00 0.03 0.03 22 1020.2
20260501185626 19 27 4.8 14.5 0.00 0.03 0.03 18 1020.3
20260501185130 18 27 8.0 22.5 0.00 0.03 0.03 19 1020.3
20260501184635 18 27 9.7 22.5 0.00 0.03 0.03 19 1020.4
20260501184139 18 27 11.3 24.1 0.00 0.03 0.03 19 1020.5
20260501183623 18 27 11.3 24.1 0.00 0.03 0.03 20 1020.6
20260501183127 18 27 8.0 16.1 0.00 0.03 0.03 21 1020.5
20260501182632 18 27 11.3 24.1 0.00 0.03 0.03 20 1020.5
20260501182136 18 27 9.7 24.1 0.00 0.03 0.03 20 1020.5
20260501181621 18 27 12.9 19.3 0.00 0.03 0.03 21 1020.5
20260501181125 17 27 8.0 25.7 0.00 0.03 0.03 20 1020.6